N930DX SCTL-SCEL

Flight info

Callsign N930DX
Flight time 0h 37m
Altitude 22000
Route N0308F220 DCT EROLO EROL8A
Aircraft TBM9/L-SDGRY/LB1

Departure

Time 2026-05-04 19:17
Airport Panguilemo Airport (SCTL)

Arrival

Time 2026-05-04 19:54
Airport Comodoro Arturo Merino Benítez International Airport (SCEL)
Time Latitude Longitude Altitude Speed Heading
2026-05-04 19:11 -35.37907 -71.60351 377 ft 0 kts 316°
2026-05-04 19:12 -35.37915 -71.60342 377 ft 0 kts 316°
2026-05-04 19:15 -35.37910 -71.60333 377 ft 2 kts 150°
2026-05-04 19:15 -35.37947 -71.60339 377 ft 12 kts 189°
2026-05-04 19:15 -35.38071 -71.60445 376 ft 30 kts 220°
2026-05-04 19:16 -35.38146 -71.60546 377 ft 9 kts 165°
2026-05-04 19:16 -35.38146 -71.60519 377 ft 0 kts 36°
2026-05-04 19:16 -35.37974 -71.60353 378 ft 66 kts 39°
2026-05-04 19:16 -35.37466 -71.59853 490 ft 112 kts 41°
2026-05-04 19:17 -35.36888 -71.59246 1027 ft 110 kts 45°
2026-05-04 19:17 -35.36296 -71.58567 1467 ft 122 kts 42°
2026-05-04 19:17 -35.35568 -71.57945 1917 ft 136 kts 16°
2026-05-04 19:17 -35.34576 -71.57943 2269 ft 155 kts 358°
2026-05-04 19:18 -35.33402 -71.58000 2495 ft 180 kts 354°
2026-05-04 19:18 -35.32131 -71.58267 2916 ft 187 kts 353°
2026-05-04 19:18 -35.30828 -71.58267 3421 ft 189 kts
2026-05-04 19:18 -35.29536 -71.57943 3936 ft 191 kts 13°
2026-05-04 19:19 -35.28219 -71.57566 4437 ft 195 kts 13°
2026-05-04 19:19 -35.26913 -71.57207 4945 ft 195 kts 12°
2026-05-04 19:19 -35.25579 -71.56851 5432 ft 196 kts 11°
2026-05-04 19:19 -35.24246 -71.56495 5931 ft 196 kts 10°
2026-05-04 19:20 -35.22912 -71.56139 6441 ft 196 kts
2026-05-04 19:20 -35.21582 -71.55781 6912 ft 196 kts
2026-05-04 19:20 -35.20252 -71.55426 7384 ft 196 kts
2026-05-04 19:20 -35.18935 -71.55075 7864 ft 197 kts
2026-05-04 19:21 -35.17592 -71.54717 8347 ft 197 kts
2026-05-04 19:21 -35.16242 -71.54355 8839 ft 198 kts
2026-05-04 19:21 -35.14899 -71.53995 9349 ft 197 kts
2026-05-04 19:21 -35.13556 -71.53639 9859 ft 197 kts
2026-05-04 19:22 -35.12209 -71.53279 10331 ft 199 kts
2026-05-04 19:22 -35.10840 -71.52915 10802 ft 202 kts
2026-05-04 19:22 -35.09467 -71.52546 11273 ft 201 kts
2026-05-04 19:22 -35.08107 -71.52181 11751 ft 200 kts
2026-05-04 19:23 -35.06735 -71.51819 12159 ft 203 kts
2026-05-04 19:23 -35.05344 -71.51451 12579 ft 206 kts
2026-05-04 19:23 -35.03957 -71.51080 13006 ft 208 kts
2026-05-04 19:23 -35.02533 -71.50700 13439 ft 210 kts
2026-05-04 19:24 -35.01092 -71.50315 13873 ft 212 kts
2026-05-04 19:24 -34.99640 -71.49928 14269 ft 214 kts
2026-05-04 19:24 -34.98174 -71.49539 14668 ft 217 kts
2026-05-04 19:24 -34.96699 -71.49145 15069 ft 217 kts
2026-05-04 19:25 -34.95222 -71.48753 15473 ft 217 kts
2026-05-04 19:25 -34.93745 -71.48361 15886 ft 218 kts
2026-05-04 19:25 -34.92274 -71.47971 16293 ft 220 kts
2026-05-04 19:25 -34.90774 -71.47571 16712 ft 222 kts
2026-05-04 19:26 -34.89259 -71.47171 17143 ft 224 kts
2026-05-04 19:26 -34.87728 -71.46764 17582 ft 225 kts
2026-05-04 19:26 -34.86198 -71.46358 18017 ft 225 kts
2026-05-04 19:26 -34.84665 -71.45952 18441 ft 226 kts
2026-05-04 19:27 -34.83126 -71.45545 18822 ft 227 kts
2026-05-04 19:27 -34.81582 -71.45135 19216 ft 227 kts
2026-05-04 19:27 -34.80053 -71.44730 19607 ft 228 kts
2026-05-04 19:27 -34.78492 -71.44318 20010 ft 229 kts
2026-05-04 19:28 -34.76933 -71.43905 20419 ft 229 kts
2026-05-04 19:28 -34.75390 -71.43498 20820 ft 229 kts
2026-05-04 19:28 -34.73829 -71.43086 21259 ft 230 kts
2026-05-04 19:28 -34.72249 -71.42670 21599 ft 236 kts
2026-05-04 19:29 -34.70610 -71.42240 21802 ft 245 kts
2026-05-04 19:29 -34.68910 -71.41789 22005 ft 254 kts
2026-05-04 19:29 -34.67131 -71.41319 22015 ft 269 kts
2026-05-04 19:29 -34.65260 -71.40805 22027 ft 283 kts
2026-05-04 19:30 -34.63356 -71.39925 22024 ft 299 kts 14°
2026-05-04 19:30 -34.61442 -71.38957 22026 ft 304 kts 13°
2026-05-04 19:30 -34.59455 -71.37990 22025 ft 309 kts 13°
2026-05-04 19:30 -34.57453 -71.37009 22023 ft 312 kts 13°
2026-05-04 19:31 -34.55440 -71.36010 22025 ft 311 kts 14°
2026-05-04 19:31 -34.53436 -71.35018 22021 ft 310 kts 13°
2026-05-04 19:31 -34.51442 -71.34041 22017 ft 309 kts 13°
2026-05-04 19:31 -34.49450 -71.33064 22014 ft 308 kts 13°
2026-05-04 19:32 -34.47464 -71.32087 22010 ft 308 kts 13°
2026-05-04 19:32 -34.45503 -71.31122 22007 ft 308 kts 13°
2026-05-04 19:32 -34.43516 -71.30146 22004 ft 308 kts 13°
2026-05-04 19:32 -34.41528 -71.29171 22010 ft 308 kts 13°
2026-05-04 19:33 -34.39540 -71.28195 22005 ft 308 kts 14°
2026-05-04 19:33 -34.37546 -71.27219 22009 ft 310 kts 13°
2026-05-04 19:33 -34.35546 -71.26235 22008 ft 309 kts 13°
2026-05-04 19:33 -34.33551 -71.25257 22006 ft 309 kts 13°
2026-05-04 19:34 -34.31554 -71.24280 22004 ft 308 kts 13°
2026-05-04 19:34 -34.29588 -71.23319 22006 ft 309 kts 13°
2026-05-04 19:34 -34.27593 -71.22343 22003 ft 309 kts 14°
2026-05-04 19:34 -34.25599 -71.21369 22014 ft 308 kts 14°
2026-05-04 19:35 -34.23607 -71.20395 22013 ft 309 kts 14°
2026-05-04 19:35 -34.21612 -71.19418 22004 ft 309 kts 14°
2026-05-04 19:35 -34.19612 -71.18443 22004 ft 309 kts 13°
2026-05-04 19:35 -34.17613 -71.17468 22004 ft 310 kts 14°
2026-05-04 19:36 -34.15612 -71.16492 22005 ft 309 kts 14°
2026-05-04 19:36 -34.13617 -71.15519 22003 ft 309 kts 14°
2026-05-04 19:36 -34.11646 -71.14560 22005 ft 309 kts 13°
2026-05-04 19:36 -34.09651 -71.13588 22007 ft 309 kts 14°
2026-05-04 19:37 -34.07654 -71.12616 22009 ft 308 kts 14°
2026-05-04 19:37 -34.05650 -71.11643 21806 ft 315 kts 14°
2026-05-04 19:37 -34.03588 -71.10641 21462 ft 323 kts 14°
2026-05-04 19:37 -34.01521 -71.09625 21096 ft 325 kts 15°
2026-05-04 19:38 -33.99421 -71.08601 20725 ft 326 kts 15°
2026-05-04 19:38 -33.97313 -71.07582 20345 ft 326 kts 15°
2026-05-04 19:38 -33.95200 -71.06559 19967 ft 325 kts 15°
2026-05-04 19:38 -33.93098 -71.05537 19589 ft 324 kts 15°
2026-05-04 19:39 -33.91039 -71.04537 19224 ft 323 kts 15°
2026-05-04 19:39 -33.88954 -71.03527 18847 ft 323 kts 16°
2026-05-04 19:39 -33.86871 -71.02519 18473 ft 322 kts 16°
2026-05-04 19:39 -33.84804 -71.01517 18082 ft 318 kts 16°
2026-05-04 19:40 -33.82759 -71.00529 17692 ft 315 kts 17°
2026-05-04 19:40 -33.80735 -70.99555 17328 ft 312 kts 16°
2026-05-04 19:40 -33.78720 -70.98581 16966 ft 311 kts 16°
2026-05-04 19:40 -33.76727 -70.97615 16607 ft 306 kts 17°
2026-05-04 19:41 -33.74753 -70.96660 16255 ft 304 kts 17°
2026-05-04 19:41 -33.72807 -70.95726 15906 ft 303 kts 17°
2026-05-04 19:41 -33.70844 -70.94779 15558 ft 302 kts 17°
2026-05-04 19:41 -33.68919 -70.93847 15211 ft 300 kts 17°
2026-05-04 19:42 -33.66979 -70.92914 14867 ft 298 kts 17°
2026-05-04 19:42 -33.65051 -70.91987 14523 ft 296 kts 17°
2026-05-04 19:42 -33.63143 -70.91069 14184 ft 295 kts 17°
2026-05-04 19:42 -33.61263 -70.90161 13847 ft 293 kts 18°
2026-05-04 19:43 -33.59380 -70.89256 13490 ft 291 kts 18°
2026-05-04 19:43 -33.57502 -70.88356 13152 ft 288 kts 18°
2026-05-04 19:43 -33.55700 -70.87261 12821 ft 290 kts 28°
2026-05-04 19:43 -33.54018 -70.85971 12486 ft 289 kts 27°
2026-05-04 19:44 -33.52302 -70.84737 12157 ft 287 kts 27°
2026-05-04 19:44 -33.50589 -70.83496 11824 ft 286 kts 28°
2026-05-04 19:44 -33.48922 -70.82258 11504 ft 285 kts 28°
2026-05-04 19:44 -33.47233 -70.81011 11173 ft 283 kts 28°
2026-05-04 19:45 -33.45506 -70.79972 10960 ft 274 kts 16°
2026-05-04 19:45 -33.43665 -70.79384 10639 ft 273 kts 10°
2026-05-04 19:45 -33.41811 -70.78856 10289 ft 274 kts 11°
2026-05-04 19:45 -33.39987 -70.78240 9929 ft 275 kts 15°
2026-05-04 19:46 -33.38168 -70.77533 9546 ft 274 kts 15°
2026-05-04 19:46 -33.36348 -70.76855 9173 ft 272 kts 14°
2026-05-04 19:46 -33.34536 -70.76211 8820 ft 271 kts 14°
2026-05-04 19:46 -33.32756 -70.75565 8469 ft 270 kts 15°
2026-05-04 19:47 -33.30953 -70.74900 8104 ft 269 kts 15°
2026-05-04 19:47 -33.29151 -70.74247 7724 ft 269 kts 15°
2026-05-04 19:47 -33.27363 -70.73597 7373 ft 269 kts 16°
2026-05-04 19:47 -33.25593 -70.72948 7019 ft 269 kts 16°
2026-05-04 19:48 -33.23807 -70.72295 6665 ft 265 kts 17°
2026-05-04 19:48 -33.22150 -70.71929 6322 ft 225 kts 357°
2026-05-04 19:48 -33.20706 -70.72524 6012 ft 219 kts 329°
2026-05-04 19:48 -33.19660 -70.73815 5773 ft 217 kts 303°
2026-05-04 19:49 -33.19231 -70.75535 5508 ft 218 kts 275°
2026-05-04 19:49 -33.19505 -70.77297 5220 ft 222 kts 248°
2026-05-04 19:49 -33.20478 -70.78763 4924 ft 231 kts 218°
2026-05-04 19:49 -33.21961 -70.79499 4605 ft 234 kts 188°
2026-05-04 19:50 -33.23584 -70.79486 4302 ft 230 kts 177°
2026-05-04 19:50 -33.25098 -70.79377 4005 ft 205 kts 177°
2026-05-04 19:50 -33.26434 -70.79291 3743 ft 184 kts 178°
2026-05-04 19:50 -33.27660 -70.79218 3501 ft 169 kts 178°
2026-05-04 19:51 -33.28793 -70.79156 3265 ft 157 kts 178°
2026-05-04 19:51 -33.29832 -70.79100 3058 ft 141 kts 178°
2026-05-04 19:51 -33.30795 -70.79038 2987 ft 141 kts 177°
2026-05-04 19:51 -33.31792 -70.78988 2949 ft 141 kts 178°
2026-05-04 19:52 -33.32750 -70.78938 2703 ft 132 kts 176°
2026-05-04 19:52 -33.33631 -70.78874 2456 ft 114 kts 175°
2026-05-04 19:52 -33.34383 -70.78840 2309 ft 104 kts 175°
2026-05-04 19:52 -33.35099 -70.78802 2162 ft 103 kts 177°
2026-05-04 19:53 -33.35815 -70.78772 2009 ft 101 kts 175°
2026-05-04 19:53 -33.36509 -70.78729 1840 ft 96 kts 176°
2026-05-04 19:53 -33.37163 -70.78690 1693 ft 94 kts 173°
2026-05-04 19:53 -33.37778 -70.78660 1577 ft 85 kts 175°
2026-05-04 19:54 -33.38277 -70.78633 1558 ft 60 kts 178°
2026-05-04 19:54 -33.38645 -70.78614 1559 ft 50 kts 178°
2026-05-04 19:54 -33.38950 -70.78603 1560 ft 35 kts 186°
2026-05-04 19:54 -33.39157 -70.78673 1559 ft 21 kts 206°
2026-05-04 19:55 -33.39290 -70.78762 1559 ft 19 kts 234°
2026-05-04 19:55 -33.39307 -70.78930 1559 ft 22 kts 267°
2026-05-04 19:55 -33.39314 -70.79113 1559 ft 15 kts 269°
2026-05-04 19:55 -33.39226 -70.79143 1559 ft 11 kts 356°
2026-05-04 19:56 -33.39226 -70.79195 1559 ft 7 kts 210°
2026-05-04 19:56 -33.39224 -70.79208 1559 ft 0 kts